Home   Weather   London   Past weeks
Flag for Canada

Past Weather in London, Ontario, Canada — Yesterday and Last 2 Weeks

Now
30 °F

Passing clouds.


Feels Like: 21 °F
Forecast: 39 / 25 °F
Wind: 10 mph from Northeast

Location: London Weather Station

Current Time: Mar 25, 2019 at 6:07:49 am

Latest Report: Mar 25, 2019 at 5:00 am


Visibility: 15 mi

Pressure: 30.19 "Hg

Humidity: 55%

Dew Point: 16 °F

Location of LondonLocation

Past Weather in London — Graph

°F

London Temperature Yesterday

Maximum temperature yesterday: 52 °F (at 5:00 pm)
Minimum temperature yesterday: 27 °F (at 5:00 am)
Average temperature yesterday: 38 °F

High & Low Weather Summary for the Past Weeks

 TemperatureHumidityPressure
High57 °F (Mar 14, 11:32 pm)100% (Mar 10, 7:15 am)30.42 "Hg (Mar 10, 7:15 am)
Low21 °F (Mar 23, 6:00 am)36% (Mar 19, 4:00 pm)29.47 "Hg (Mar 14, 11:00 pm)
Average35 °F75%30.06 "Hg
* Reported Mar 10 7:15 am — Mar 25 5:00 am, London. Weather by CustomWeather, © 2019

Note: Actual official high and low records may vary slightly from our data, if they occured in-between our weather recording intervals... More about our weather records

Advertising

London Weather History for the Previous 24 Hours

Scroll right to see more
 ConditionsComfort  
Time TempWeatherWind HumidityBarometerVisibility
5:00 am
Mon, Mar 25
30 °FPassing clouds.10 mph55%30.19 "Hg15 mi
4:00 am30 °FPassing clouds.9 mph64%30.17 "Hg15 mi
3:00 am30 °FPassing clouds.7 mph80%30.16 "Hg15 mi
2:00 am30 °FPassing clouds.8 mph80%30.15 "Hg15 mi
1:00 am32 °FPassing clouds.7 mph80%30.15 "Hg15 mi
12:00 am32 °FPassing clouds.7 mph80%30.14 "Hg15 mi
11:00 pm
Sun, Mar 24
34 °FPassing clouds.6 mph75%30.13 "Hg15 mi
10:00 pm36 °FOvercast.5 mph75%30.12 "Hg15 mi
9:00 pm37 °FOvercast.8 mph75%30.11 "Hg15 mi
8:00 pm41 °FPartly cloudy.8 mph70%30.08 "Hg15 mi
7:00 pm46 °FMore clouds than sun.6 mph57%30.06 "Hg15 mi
6:00 pm48 °FMore clouds than sun.10 mph54%30.05 "Hg15 mi
5:00 pm52 °FMore clouds than sun.13 mph47%30.04 "Hg15 mi
4:00 pm50 °FMore clouds than sun.13 mph47%30.04 "Hg15 mi
3:00 pm48 °FMostly cloudy.10 mph54%30.06 "Hg15 mi
2:00 pm48 °FPartly sunny.15 mph54%30.09 "Hg15 mi
1:00 pm46 °FMostly cloudy.10 mph53%30.10 "Hg15 mi
12:00 pm46 °FMostly cloudy.13 mph50%30.12 "Hg15 mi
11:00 am43 °FMostly cloudy.9 mph57%30.14 "Hg15 mi
10:00 am41 °FOvercast.9 mph57%30.16 "Hg15 mi
9:00 am34 °FOvercast.6 mph75%30.18 "Hg15 mi
8:00 am28 °FOvercast.6 mph80%30.18 "Hg15 mi
7:00 am28 °FPassing clouds.3 mph74%30.18 "Hg15 mi
6:00 am27 °FHigh level clouds.5 mph80%30.18 "Hg15 mi
Weather by CustomWeather, © 2019

See weather overview